| time (UTC) | temp C | wind direction | speed KPH | gust KPH | rain 1hr cm | rain 24hr cm | rain mn cm | humidity % | barometer mb |
| 20260503050821 | 11 | 32 | 0.0 | 6.4 | 0.00 | 0.05 | 0.05 | 75 | 1017.2 |
| 20260503050330 | 11 | 32 | 3.2 | 6.4 | 0.00 | 0.05 | 0.05 | 74 | 1017.1 |
| 20260503045820 | 11 | 32 | 1.6 | 3.2 | 0.00 | 0.05 | 0.05 | 73 | 1017.4 |
| 20260503045349 | 11 | 32 | 0.0 | 6.4 | 0.00 | 0.05 | 0.05 | 72 | 1017.7 |
| 20260503044838 | 12 | 32 | 1.6 | 6.4 | 0.00 | 0.05 | 0.05 | 71 | 1017.6 |
| 20260503044349 | 12 | 32 | 0.0 | 4.8 | 0.00 | 0.05 | 0.05 | 69 | 1017.4 |
| 20260503043840 | 12 | 32 | 0.0 | 8.0 | 0.00 | 0.05 | 0.05 | 67 | 1017.3 |
| 20260503043330 | 12 | 32 | 3.2 | 12.9 | 0.00 | 0.05 | 0.05 | 67 | 1017.1 |
| 20260503042822 | 12 | 32 | 3.2 | 16.1 | 0.00 | 0.05 | 0.05 | 68 | 1017.1 |
| 20260503042332 | 12 | 32 | 6.4 | 16.1 | 0.00 | 0.05 | 0.05 | 67 | 1017.1 |
| 20260503041822 | 12 | 31 | 8.0 | 19.3 | 0.00 | 0.05 | 0.05 | 67 | 1017.0 |
| 20260503041332 | 11 | 39 | 11.3 | 19.3 | 0.00 | 0.05 | 0.05 | 70 | 1017.0 |
| 20260503040839 | 11 | 48 | 8.0 | 17.7 | 0.00 | 0.05 | 0.05 | 73 | 1017.1 |
| 20260503040329 | 11 | 56 | 4.8 | 11.3 | 0.00 | 0.05 | 0.05 | 76 | 1017.2 |
| 20260503035820 | 11 | 59 | 4.8 | 11.3 | 0.00 | 0.05 | 0.05 | 78 | 1017.3 |
| 20260503035331 | 11 | 59 | 0.0 | 4.8 | 0.00 | 0.05 | 0.05 | 78 | 1017.3 |
| 20260503034822 | 11 | 59 | 1.6 | 9.7 | 0.00 | 0.05 | 0.05 | 76 | 1017.4 |
| 20260503034314 | 11 | 26 | 1.6 | 6.4 | 0.00 | 0.05 | 0.05 | 75 | 1017.3 |
| 20260503033823 | 11 | 24 | 3.2 | 14.5 | 0.00 | 0.05 | 0.05 | 72 | 1017.3 |
| 20260503033331 | 11 | 10 | 8.0 | 14.5 | 0.00 | 0.05 | 0.05 | 71 | 1016.9 |
| 20260503032840 | 11 | 333 | 1.6 | 8.0 | 0.00 | 0.05 | 0.05 | 74 | 1016.9 |
| 20260503032328 | 11 | 333 | 1.6 | 8.0 | 0.00 | 0.05 | 0.05 | 75 | 1016.7 |
| 20260503031819 | 11 | 333 | 3.2 | 6.4 | 0.00 | 0.05 | 0.05 | 77 | 1016.4 |
| 20260503031332 | 11 | 333 | 0.0 | 6.4 | 0.00 | 0.05 | 0.05 | 77 | 1016.2 |
| 20260503030823 | 11 | 333 | 0.0 | 6.4 | 0.00 | 0.05 | 0.05 | 76 | 1016.2 |
| 20260503030334 | 11 | 333 | 3.2 | 9.7 | 0.00 | 0.05 | 0.05 | 74 | 1016.1 |
| 20260503025824 | 11 | 333 | 4.8 | 9.7 | 0.00 | 0.05 | 0.05 | 74 | 1016.0 |
| 20260503025335 | 11 | 333 | 4.8 | 9.7 | 0.00 | 0.05 | 0.05 | 75 | 1015.9 |
| 20260503024844 | 11 | 333 | 6.4 | 9.7 | 0.00 | 0.05 | 0.05 | 76 | 1016.2 |
| 20260503024332 | 11 | 333 | 6.4 | 9.7 | 0.00 | 0.05 | 0.05 | 76 | 1016.0 |
| 20260503023822 | 11 | 333 | 4.8 | 14.5 | 0.00 | 0.05 | 0.05 | 76 | 1016.3 |
| 20260503023329 | 11 | 333 | 4.8 | 14.5 | 0.00 | 0.05 | 0.05 | 75 | 1016.0 |
| 20260503022820 | 11 | 336 | 4.8 | 8.0 | 0.00 | 0.05 | 0.05 | 74 | 1016.0 |
| 20260503022351 | 11 | 338 | 4.8 | 8.0 | 0.00 | 0.05 | 0.05 | 75 | 1016.2 |
| 20260503021819 | 12 | 340 | 3.2 | 6.4 | 0.00 | 0.05 | 0.05 | 75 | 1016.2 |
| 20260503021331 | 12 | 342 | 3.2 | 4.8 | 0.00 | 0.05 | 0.05 | 74 | 1016.1 |
| 20260503020823 | 12 | 342 | 1.6 | 12.9 | 0.00 | 0.05 | 0.05 | 72 | 1015.9 |
| 20260503020316 | 12 | 342 | 6.4 | 12.9 | 0.03 | 0.05 | 0.05 | 70 | 1016.0 |
| 20260503015826 | 12 | 343 | 6.4 | 16.1 | 0.05 | 0.05 | 0.05 | 69 | 1016.0 |
| 20260503015319 | 12 | 343 | 9.7 | 16.1 | 0.05 | 0.05 | 0.05 | 69 | 1015.9 |
| 20260503014830 | 12 | 347 | 8.0 | 17.7 | 0.05 | 0.05 | 0.05 | 68 | 1015.9 |
| 20260503014322 | 12 | 348 | 8.0 | 17.7 | 0.05 | 0.05 | 0.05 | 68 | 1015.5 |
| 20260503013834 | 12 | 348 | 8.0 | 17.7 | 0.05 | 0.05 | 0.05 | 72 | 1015.6 |
| 20260503013323 | 12 | 345 | 4.8 | 12.9 | 0.05 | 0.05 | 0.05 | 74 | 1015.9 |
| 20260503012812 | 11 | 344 | 4.8 | 16.1 | 0.05 | 0.05 | 0.05 | 74 | 1016.2 |
| 20260503012349 | 11 | 348 | 9.7 | 16.1 | 0.05 | 0.05 | 0.05 | 75 | 1016.4 |
| 20260503011837 | 12 | 89 | 6.4 | 16.1 | 0.05 | 0.05 | 0.05 | 75 | 1016.7 |
| 20260503011331 | 12 | 131 | 1.6 | 6.4 | 0.05 | 0.05 | 0.05 | 72 | 1016.9 |
| 20260503010821 | 12 | 131 | 0.0 | 17.7 | 0.05 | 0.05 | 0.05 | 71 | 1016.9 |
| 20260503010345 | 13 | 131 | 1.6 | 19.3 | 0.03 | 0.03 | 0.03 | 66 | 1017.1 |
| 20260503005816 | 13 | 129 | 4.8 | 22.5 | 0.00 | 0.00 | 0.00 | 63 | 1017.3 |
| 20260503005327 | 15 | 119 | 8.0 | 22.5 | 0.00 | 0.00 | 0.00 | 59 | 1017.3 |
| 20260503004819 | 15 | 57 | 4.8 | 27.4 | 0.00 | 0.00 | 0.00 | 53 | 1016.9 |
| 20260503004352 | 15 | 58 | 1.6 | 27.4 | 0.00 | 0.00 | 0.00 | 50 | 1016.3 |
| 20260503003819 | 15 | 38 | 11.3 | 19.3 | 0.00 | 0.00 | 0.00 | 48 | 1015.9 |
| 20260503003328 | 15 | 23 | 8.0 | 19.3 | 0.00 | 0.00 | 0.00 | 48 | 1015.6 |
| 20260503002819 | 15 | 51 | 4.8 | 19.3 | 0.00 | 0.00 | 0.00 | 50 | 1015.5 |
| 20260503002356 | 15 | 24 | 0.0 | 6.4 | 0.00 | 0.00 | 0.00 | 53 | 1015.1 |
| 20260503001844 | 15 | 24 | 3.2 | 8.0 | 0.00 | 0.00 | 0.00 | 50 | 1015.0 |
| 20260503001332 | 15 | 24 | 1.6 | 8.0 | 0.00 | 0.00 | 0.00 | 51 | 1014.9 |
| 20260503000822 | 16 | 24 | 4.8 | 14.5 | 0.00 | 0.00 | 0.00 | 52 | 1015.2 |
| 20260503000312 | 16 | 24 | 4.8 | 14.5 | 0.00 | 0.00 | 0.00 | 49 | 1015.1 |
| 20260502235851 | 16 | 5 | 4.8 | 12.9 | 0.00 | 0.00 | 0.00 | 50 | 1014.9 |
| 20260502235321 | 16 | 360 | 6.4 | 14.5 | 0.00 | 0.00 | 0.00 | 48 | 1015.0 |
| 20260502234828 | 16 | 355 | 6.4 | 16.1 | 0.00 | 0.00 | 0.00 | 42 | 1014.8 |
| 20260502234338 | 16 | 342 | 8.0 | 16.1 | 0.00 | 0.00 | 0.00 | 42 | 1014.6 |
| 20260502233828 | 17 | 340 | 4.8 | 17.7 | 0.00 | 0.00 | 0.00 | 43 | 1014.6 |
| 20260502233318 | 17 | 340 | 4.8 | 17.7 | 0.00 | 0.00 | 0.00 | 41 | 1014.5 |
| 20260502232829 | 17 | 344 | 9.7 | 19.3 | 0.00 | 0.00 | 0.00 | 41 | 1014.5 |
| 20260502232319 | 17 | 333 | 9.7 | 19.3 | 0.00 | 0.00 | 0.00 | 41 | 1014.6 |
| 20260502231830 | 17 | 340 | 8.0 | 16.1 | 0.00 | 0.00 | 0.00 | 40 | 1014.5 |
| 20260502231319 | 17 | 336 | 11.3 | 16.1 | 0.00 | 0.00 | 0.00 | 40 | 1014.7 |
| 20260502230827 | 18 | 338 | 6.4 | 16.1 | 0.00 | 0.00 | 0.00 | 40 | 1014.8 |
| 20260502230317 | 18 | 340 | 9.7 | 17.7 | 0.00 | 0.00 | 0.00 | 39 | 1014.8 |
| 20260502225826 | 18 | 326 | 9.7 | 20.9 | 0.00 | 0.00 | 0.00 | 39 | 1014.8 |
| 20260502225319 | 18 | 321 | 11.3 | 20.9 | 0.00 | 0.00 | 0.00 | 39 | 1014.7 |
| 20260502224827 | 18 | 310 | 4.8 | 20.9 | 0.00 | 0.00 | 0.00 | 39 | 1014.9 |
| 20260502224315 | 18 | 248 | 9.7 | 20.9 | 0.00 | 0.00 | 0.00 | 37 | 1014.9 |
| 20260502223853 | 18 | 168 | 6.4 | 14.5 | 0.00 | 0.00 | 0.00 | 35 | 1015.0 |
| 20260502223323 | 19 | 164 | 8.0 | 11.3 | 0.00 | 0.00 | 0.00 | 35 | 1014.9 |
| 20260502222832 | 19 | 164 | 1.6 | 12.9 | 0.00 | 0.00 | 0.00 | 31 | 1015.0 |
| 20260502222321 | 19 | 164 | 3.2 | 12.9 | 0.00 | 0.00 | 0.00 | 30 | 1015.0 |
| 20260502221830 | 19 | 164 | 3.2 | 12.9 | 0.00 | 0.00 | 0.00 | 30 | 1015.0 |
| 20260502221320 | 19 | 164 | 8.0 | 16.1 | 0.00 | 0.00 | 0.00 | 29 | 1015.0 |
| 20260502220828 | 19 | 164 | 9.7 | 16.1 | 0.00 | 0.00 | 0.00 | 29 | 1015.1 |
| 20260502220318 | 19 | 163 | 4.8 | 16.1 | 0.00 | 0.00 | 0.00 | 29 | 1015.1 |
| 20260502215831 | 20 | 163 | 8.0 | 22.5 | 0.00 | 0.00 | 0.00 | 28 | 1015.2 |
| 20260502215323 | 20 | 163 | 12.9 | 22.5 | 0.00 | 0.00 | 0.00 | 29 | 1015.4 |
| 20260502214829 | 20 | 157 | 11.3 | 17.7 | 0.00 | 0.00 | 0.00 | 30 | 1015.5 |
| 20260502214317 | 20 | 155 | 8.0 | 17.7 | 0.00 | 0.00 | 0.00 | 30 | 1015.5 |
| 20260502213827 | 20 | 159 | 8.0 | 19.3 | 0.00 | 0.00 | 0.00 | 30 | 1015.5 |
| 20260502213315 | 20 | 161 | 8.0 | 19.3 | 0.00 | 0.00 | 0.00 | 30 | 1015.5 |
| 20260502212822 | 20 | 163 | 6.4 | 16.1 | 0.00 | 0.00 | 0.00 | 30 | 1015.7 |
| 20260502212330 | 20 | 163 | 4.8 | 14.5 | 0.00 | 0.00 | 0.00 | 30 | 1015.8 |
| 20260502211818 | 20 | 163 | 4.8 | 12.9 | 0.00 | 0.00 | 0.00 | 30 | 1015.8 |
| 20260502211327 | 20 | 163 | 6.4 | 14.5 | 0.00 | 0.00 | 0.00 | 31 | 1015.9 |
| 20260502210818 | 20 | 163 | 6.4 | 14.5 | 0.00 | 0.00 | 0.00 | 30 | 1016.0 |
| 20260502210330 | 20 | 163 | 3.2 | 9.7 | 0.00 | 0.00 | 0.00 | 30 | 1015.9 |
| 20260502205821 | 20 | 163 | 1.6 | 11.3 | 0.00 | 0.00 | 0.00 | 31 | 1015.9 |
| 20260502205332 | 20 | 163 | 6.4 | 14.5 | 0.00 | 0.00 | 0.00 | 31 | 1016.0 |
| 20260502204841 | 20 | 163 | 6.4 | 17.7 | 0.00 | 0.00 | 0.00 | 30 | 1016.0 |
| 20260502204328 | 20 | 164 | 3.2 | 19.3 | 0.00 | 0.00 | 0.00 | 30 | 1016.2 |
| 20260502203819 | 20 | 163 | 12.9 | 19.3 | 0.00 | 0.00 | 0.00 | 30 | 1016.1 |
| 20260502203328 | 20 | 159 | 4.8 | 16.1 | 0.00 | 0.00 | 0.00 | 30 | 1016.0 |
| 20260502202818 | 20 | 159 | 6.4 | 16.1 | 0.00 | 0.00 | 0.00 | 30 | 1016.1 |
| 20260502202346 | 20 | 167 | 8.0 | 14.5 | 0.00 | 0.00 | 0.00 | 30 | 1016.0 |
| 20260502201816 | 20 | 167 | 6.4 | 24.1 | 0.00 | 0.00 | 0.00 | 30 | 1016.0 |
| 20260502201347 | 20 | 167 | 8.0 | 24.1 | 0.00 | 0.00 | 0.00 | 29 | 1016.0 |
| 20260502200818 | 20 | 171 | 9.7 | 19.3 | 0.00 | 0.00 | 0.00 | 29 | 1016.2 |
| 20260502200328 | 20 | 171 | 12.9 | 22.5 | 0.00 | 0.00 | 0.00 | 29 | 1016.2 |
| 20260502195820 | 20 | 171 | 9.7 | 19.3 | 0.00 | 0.00 | 0.00 | 29 | 1016.3 |
| 20260502195331 | 20 | 171 | 4.8 | 19.3 | 0.00 | 0.00 | 0.00 | 30 | 1016.2 |
| 20260502194842 | 20 | 171 | 6.4 | 19.3 | 0.00 | 0.00 | 0.00 | 29 | 1016.2 |
| 20260502194332 | 20 | 176 | 8.0 | 17.7 | 0.00 | 0.00 | 0.00 | 29 | 1016.4 |
| 20260502193821 | 20 | 175 | 9.7 | 17.7 | 0.00 | 0.00 | 0.00 | 29 | 1016.4 |
| 20260502193312 | 20 | 172 | 12.9 | 20.9 | 0.00 | 0.00 | 0.00 | 29 | 1016.4 |
| 20260502192850 | 20 | 173 | 1.6 | 19.3 | 0.00 | 0.00 | 0.00 | 28 | 1016.4 |
| 20260502192320 | 21 | 171 | 8.0 | 20.9 | 0.00 | 0.00 | 0.00 | 28 | 1016.5 |
| 20260502191830 | 21 | 155 | 4.8 | 14.5 | 0.00 | 0.00 | 0.00 | 29 | 1016.5 |
| 20260502191320 | 20 | 175 | 4.8 | 11.3 | 0.00 | 0.00 | 0.00 | 28 | 1016.5 |
| 20260502190830 | 20 | 175 | 3.2 | 19.3 | 0.00 | 0.00 | 0.00 | 28 | 1016.6 |
| 20260502190319 | 20 | 176 | 14.5 | 19.3 | 0.00 | 0.00 | 0.00 | 29 | 1016.9 |
| 20260502185831 | 20 | 171 | 4.8 | 14.5 | 0.00 | 0.00 | 0.00 | 30 | 1016.8 |
| 20260502185339 | 20 | 172 | 6.4 | 20.9 | 0.00 | 0.00 | 0.00 | 30 | 1016.8 |
| 20260502184830 | 20 | 164 | 9.7 | 20.9 | 0.00 | 0.00 | 0.00 | 30 | 1016.9 |
| 20260502184321 | 20 | 167 | 9.7 | 22.5 | 0.00 | 0.00 | 0.00 | 30 | 1017.0 |
| 20260502183832 | 20 | 116 | 4.8 | 17.7 | 0.00 | 0.00 | 0.00 | 30 | 1017.0 |
| 20260502183343 | 20 | 164 | 6.4 | 24.1 | 0.00 | 0.00 | 0.00 | 30 | 1017.0 |
| 20260502182830 | 20 | 167 | 8.0 | 24.1 | 0.00 | 0.00 | 0.00 | 30 | 1017.0 |
| 20260502182319 | 20 | 163 | 14.5 | 24.1 | 0.00 | 0.00 | 0.00 | 30 | 1017.1 |
| 20260502181825 | 20 | 158 | 11.3 | 22.5 | 0.00 | 0.00 | 0.00 | 31 | 1017.2 |
| 20260502181335 | 20 | 159 | 9.7 | 25.7 | 0.00 | 0.00 | 0.00 | 30 | 1017.1 |
| 20260502180827 | 20 | 152 | 6.4 | 25.7 | 0.00 | 0.00 | 0.00 | 30 | 1017.1 |
| 20260502180337 | 19 | 159 | 4.8 | 16.1 | 0.00 | 0.00 | 0.00 | 31 | 1017.1 |
| 20260502170331 | 18 | 57 | 1.6 | 6.4 | 0.00 | 0.00 | 0.00 | 33 | 1017.1 |
| 20260502164317 | 18 | 58 | 1.6 | 9.7 | 0.00 | 0.00 | 0.00 | 33 | 1017.1 |
| 20260502163832 | 18 | 58 | 3.2 | 11.3 | 0.00 | 0.00 | 0.00 | 34 | 1017.1 |
| 20260502163344 | 17 | 58 | 3.2 | 14.5 | 0.00 | 0.00 | 0.00 | 35 | 1017.1 |
| 20260502162833 | 17 | 57 | 3.2 | 14.5 | 0.00 | 0.00 | 0.00 | 34 | 1017.2 |
| 20260502162320 | 17 | 57 | 4.8 | 9.7 | 0.00 | 0.00 | 0.00 | 36 | 1017.2 |
| 20260502161826 | 16 | 57 | 0.0 | 6.4 | 0.00 | 0.00 | 0.00 | 35 | 1017.1 |
| 20260502161337 | 16 | 57 | 1.6 | 6.4 | 0.00 | 0.00 | 0.00 | 36 | 1017.2 |
| 20260502160823 | 16 | 57 | 1.6 | 8.0 | 0.00 | 0.00 | 0.00 | 35 | 1017.2 |
| 20260502160330 | 16 | 57 | 0.0 | 8.0 | 0.00 | 0.00 | 0.00 | 36 | 1017.3 |
| 20260502152331 | 13 | 57 | 0.0 | 3.2 | 0.00 | 0.00 | 0.00 | 46 | 1017.3 |
| 20260502151823 | 12 | 57 | 0.0 | 0.0 | 0.00 | 0.00 | 0.00 | 47 | 1017.2 |
| 20260502151332 | 12 | 57 | 0.0 | 0.0 | 0.00 | 0.00 | 0.00 | 48 | 1017.2 |
| 20260502150821 | 11 | 57 | 0.0 | 0.0 | 0.00 | 0.00 | 0.00 | 49 | 1017.2 |
| 20260502150334 | 11 | 57 | 0.0 | 0.0 | 0.00 | 0.00 | 0.00 | 50 | 1017.3 |
| 20260502130355 | 6 | 57 | 0.0 | 0.0 | 0.00 | 0.00 | 0.00 | 53 | 1016.4 |
| 20260502123816 | 6 | 57 | 0.0 | 0.0 | 0.00 | 0.00 | 0.00 | 53 | 1016.1 |
| 20260502123353 | 6 | 57 | 0.0 | 0.0 | 0.00 | 0.00 | 0.00 | 52 | 1016.1 |
| 20260502122820 | 6 | 57 | 0.0 | 0.0 | 0.00 | 0.00 | 0.00 | 52 | 1016.1 |
| 20260502122330 | 6 | 57 | 0.0 | 0.0 | 0.00 | 0.00 | 0.00 | 52 | 1016.3 |
| 20260502121820 | 6 | 57 | 0.0 | 0.0 | 0.00 | 0.00 | 0.00 | 52 | 1016.2 |
| 20260502121328 | 6 | 57 | 0.0 | 0.0 | 0.00 | 0.00 | 0.00 | 51 | 1016.1 |
| 20260502120818 | 6 | 57 | 0.0 | 0.0 | 0.00 | 0.00 | 0.00 | 51 | 1016.0 |
| 20260502120329 | 6 | 57 | 0.0 | 0.0 | 0.00 | 0.00 | 0.00 | 51 | 1016.1 |
| 20260502115816 | 6 | 57 | 0.0 | 0.0 | 0.00 | 0.00 | 0.00 | 51 | 1016.0 |
| 20260502115325 | 6 | 57 | 0.0 | 0.0 | 0.00 | 0.00 | 0.00 | 50 | 1016.0 |
| 20260502114815 | 6 | 57 | 0.0 | 0.0 | 0.00 | 0.00 | 0.00 | 50 | 1016.0 |
| 20260502114344 | 6 | 57 | 0.0 | 0.0 | 0.00 | 0.00 | 0.00 | 49 | 1015.9 |
| 20260502113829 | 6 | 57 | 0.0 | 0.0 | 0.00 | 0.00 | 0.00 | 49 | 1016.0 |
| 20260502113319 | 6 | 57 | 0.0 | 0.0 | 0.00 | 0.00 | 0.00 | 49 | 1016.0 |
| 20260502112830 | 7 | 57 | 0.0 | 0.0 | 0.00 | 0.00 | 0.00 | 48 | 1016.0 |
| 20260502112321 | 7 | 57 | 0.0 | 0.0 | 0.00 | 0.00 | 0.00 | 47 | 1016.1 |
| 20260502111831 | 7 | 57 | 0.0 | 0.0 | 0.00 | 0.00 | 0.00 | 47 | 1016.1 |
| 20260502111320 | 7 | 57 | 0.0 | 0.0 | 0.00 | 0.00 | 0.00 | 46 | 1016.1 |
| 20260502110831 | 7 | 57 | 0.0 | 0.0 | 0.00 | 0.00 | 0.00 | 45 | 1016.0 |
| 20260502110342 | 7 | 57 | 0.0 | 0.0 | 0.00 | 0.00 | 0.00 | 45 | 1016.1 |
| 20260502105832 | 7 | 57 | 0.0 | 0.0 | 0.00 | 0.00 | 0.00 | 44 | 1016.0 |
| 20260502105341 | 7 | 57 | 0.0 | 0.0 | 0.00 | 0.00 | 0.00 | 44 | 1016.1 |
| 20260502104828 | 7 | 57 | 0.0 | 0.0 | 0.00 | 0.00 | 0.00 | 43 | 1016.1 |
| 20260502104319 | 7 | 57 | 0.0 | 0.0 | 0.00 | 0.00 | 0.00 | 43 | 1015.9 |
| 20260502103832 | 7 | 57 | 0.0 | 0.0 | 0.00 | 0.00 | 0.00 | 43 | 1016.1 |
| 20260502103321 | 7 | 57 | 0.0 | 0.0 | 0.00 | 0.00 | 0.00 | 43 | 1016.0 |
| 20260502102851 | 7 | 57 | 0.0 | 0.0 | 0.00 | 0.00 | 0.00 | 42 | 1016.0 |
| 20260502102320 | 7 | 57 | 0.0 | 0.0 | 0.00 | 0.00 | 0.00 | 41 | 1016.0 |
| 20260502101831 | 7 | 57 | 0.0 | 0.0 | 0.00 | 0.00 | 0.00 | 42 | 1015.9 |
| 20260502101343 | 7 | 57 | 0.0 | 0.0 | 0.00 | 0.00 | 0.00 | 42 | 1015.9 |
| 20260502100831 | 8 | 57 | 0.0 | 0.0 | 0.00 | 0.00 | 0.00 | 42 | 1015.9 |
| 20260502100341 | 8 | 57 | 0.0 | 0.0 | 0.00 | 0.00 | 0.00 | 41 | 1016.0 |
| 20260502091340 | 8 | 57 | 0.0 | 0.0 | 0.00 | 0.00 | 0.00 | 37 | 1016.5 |
| 20260502090827 | 8 | 57 | 0.0 | 0.0 | 0.00 | 0.00 | 0.00 | 37 | 1016.6 |
| 20260502090320 | 8 | 57 | 0.0 | 0.0 | 0.00 | 0.00 | 0.00 | 37 | 1016.5 |
| 20260502071321 | 11 | 57 | 0.0 | 0.0 | 0.00 | 0.00 | 0.00 | 30 | 1017.2 |
| 20260502070831 | 11 | 57 | 0.0 | 0.0 | 0.00 | 0.00 | 0.00 | 29 | 1017.3 |
| 20260502070320 | 11 | 57 | 0.0 | 0.0 | 0.00 | 0.00 | 0.00 | 29 | 1017.3 |
| 20260502065830 | 11 | 57 | 0.0 | 0.0 | 0.00 | 0.00 | 0.00 | 29 | 1017.4 |
| 20260502065321 | 12 | 57 | 0.0 | 0.0 | 0.00 | 0.00 | 0.00 | 28 | 1017.3 |
| 20260502064834 | 12 | 57 | 0.0 | 0.0 | 0.00 | 0.00 | 0.00 | 28 | 1017.3 |
| 20260502064326 | 12 | 57 | 0.0 | 0.0 | 0.00 | 0.00 | 0.00 | 28 | 1017.3 |
| 20260502063820 | 12 | 57 | 0.0 | 0.0 | 0.00 | 0.00 | 0.00 | 26 | 1017.2 |
| 20260502063326 | 12 | 57 | 0.0 | 0.0 | 0.00 | 0.00 | 0.00 | 26 | 1017.1 |
| 20260502062815 | 13 | 57 | 0.0 | 0.0 | 0.00 | 0.00 | 0.00 | 26 | 1017.1 |
| 20260502062327 | 13 | 57 | 0.0 | 0.0 | 0.00 | 0.00 | 0.00 | 25 | 1017.1 |
| 20260502061818 | 13 | 57 | 0.0 | 0.0 | 0.00 | 0.00 | 0.00 | 24 | 1017.1 |
| 20260502061352 | 13 | 57 | 0.0 | 0.0 | 0.00 | 0.00 | 0.00 | 23 | 1017.2 |
| 20260502060820 | 13 | 57 | 0.0 | 0.0 | 0.00 | 0.00 | 0.00 | 23 | 1017.1 |
| 20260502060330 | 13 | 57 | 0.0 | 0.0 | 0.00 | 0.00 | 0.00 | 23 | 1017.1 |
| 20260502055820 | 13 | 57 | 0.0 | 0.0 | 0.00 | 0.00 | 0.00 | 24 | 1017.1 |
| 20260502055349 | 13 | 57 | 0.0 | 0.0 | 0.00 | 0.00 | 0.00 | 23 | 1017.1 |
| 20260502054819 | 13 | 57 | 0.0 | 0.0 | 0.00 | 0.00 | 0.00 | 23 | 1017.2 |
| 20260502054335 | 13 | 57 | 0.0 | 0.0 | 0.00 | 0.00 | 0.00 | 22 | 1017.2 |
| 20260502053846 | 13 | 57 | 0.0 | 0.0 | 0.00 | 0.00 | 0.00 | 22 | 1017.1 |
| 20260502053336 | 13 | 57 | 0.0 | 0.0 | 0.00 | 0.00 | 0.00 | 23 | 1017.2 |
| 20260502052848 | 13 | 57 | 0.0 | 3.2 | 0.00 | 0.00 | 0.00 | 22 | 1017.3 |
| 20260502052320 | 13 | 57 | 0.0 | 0.0 | 0.00 | 0.00 | 0.00 | 23 | 1017.3 |
| 20260502051828 | 13 | 57 | 0.0 | 0.0 | 0.00 | 0.00 | 0.00 | 22 | 1017.3 |
| 20260502051319 | 13 | 57 | 0.0 | 0.0 | 0.00 | 0.00 | 0.00 | 22 | 1017.3 |